Regional Weather Roundup
Issued by NWS

Home | Current Version | Previous Version | Text Only | Print | Product List | Glossary On
Versions: 1 2 3 4 5 6 7 8 9 10 11 12 13 14 15 16 17 18 19 20 21 22 23 24 25 26 27 28 29 30 31 32 33 34 35 36 37 38 39 40 41 42 43 44 45 46 47 48 49 50
000
ASUS43 KDTX 240710
RWRMI
MICHIGAN HOURLY REGIONAL WEATHER ROUNDUP
NATIONAL WEATHER SERVICE DETROIT/PONTIAC MI
300 AM EDT TUE MAY 24 2016

NOTE: "FAIR" INDICATES FEW OR NO CLOUDS BELOW 12,000 FEET WITH NO
SIGNIFICANT WEATHER AND/OR OBSTRUCTION TO VISIBILITY.

MIZ047>049-052>055-059>063-066>070-074>076-081>083-240800-
SOUTHEAST LOWER MICHIGAN

CITY           SKY/WX    TMP DP  RH WIND       PRES   REMARKS
ADRIAN         CLEAR     50  44  80 CALM      30.01F
ALMA           CLEAR     48  45  90 W10       29.98S
ANN ARBOR      FOG       45  43  93 CALM      30.00F VSB 3/4
BAD AXE        CLEAR     51  41  68 CALM      29.98F
CARO           CLEAR     45  42  87 CALM      29.97F
DETROIT CITY   CLEAR     56  47  71 CALM      30.00F
DETROIT        PTCLDY    55  50  83 CALM      30.01F
FLINT          CLEAR     51  42  71 CALM      29.99F
GROSSE ILE     CLEAR     54  52  94 CALM      29.99F
HILLSDALE      CLEAR     50  40  66 S5        30.00F
HOWELL         CLEAR     51  42  71 CALM      30.00S

CITY           SKY/WX    TMP DP  RH WIND       PRES   REMARKS
JACKSON        CLEAR     50  40  68 CALM      30.00F
LAMBERTVILLE   CLEAR     51  48  91 CALM      30.01F
LANSING        CLEAR     57  36  45 CALM      29.99F
LAPEER         FAIR      46  44  93 CALM      30.00F
MASON          CLEAR     55  38  52 S6        29.99F
MONROE         CLEAR     50  50 100 CALM      30.00F
MT. CLEMENS    CLEAR     51  45  80 CALM      29.99F
PONTIAC        CLEAR     50  44  80 CALM      30.00F
PORT HOPE        N/A     61  39  44 SW8       29.94F
PORT HURON     CLEAR     46  46 100 CALM      30.00F FOG
TRI CITIES     CLEAR     60  40  47 S8        29.98S
MIDLAND        FAIR      48  44  86 CALM      29.96F
TROY           CLEAR     58  46  64 W3        30.02F
SAGINAW HB     CLEAR     54  37  54 S7        29.97S
$$
MIZ043>046-050>051-056>058-064>065-071>073-077>080-240800-
SOUTHWEST LOWER MICHIGAN

CITY           SKY/WX    TMP DP  RH WIND       PRES   REMARKS
BATTLE CREEK   CLEAR     52  38  58 CALM      30.00S
BENTON HARBOR  CLEAR     59  37  44 SE5       29.97S
BIG RAPIDS     CLEAR     48  44  86 CALM      29.97S
COLDWATER      CLEAR     49  44  82 CALM      30.00S
FREMONT        FAIR      54  45  70 CALM      29.96S
HOLLAND        CLEAR     56  40  55 SE6       29.97S
GRAND RAPIDS   CLEAR     56  41  57 S6        29.98S
IONIA          FAIR      55  37  50 S3        29.98R
KALAMAZOO      CLEAR     54  37  52 S3        29.99S
LUDINGTON      CLEAR     58  40  51 SE5       29.94S
MARSHALL       CLEAR     54  37  52 CALM      29.99S
MOUNT PLEASANT CLEAR     49  47  93 CALM      29.96S
MUSKEGON       CLEAR     55  41  59 SE7       29.96S
SOUTH HAVEN    CLEAR     60  36  41 S3        29.97S HAZE
$$
MIZ016>042-240800-
NORTHERN LOWER MICHIGAN

CITY           SKY/WX    TMP DP  RH WIND       PRES   REMARKS
ALPENA         CLEAR     49  44  83 CALM      29.95F
BEAVER ISLAND  CLEAR     63  35  35 S8        29.90S
BELLAIRE       CLEAR     46  45  93 CALM      29.93F
CADILLAC       CLEAR     44  40  85 CALM      29.96S
CHARLEVOIX     CLEAR     57  43  59 SE6       29.94S
FRANKFORT      CLEAR     66  38  36 S3        29.92F
GAYLORD        CLEAR     51  42  71 CALM      29.95F
GRAYLING       CLEAR     41  38  91 CALM      29.97S
HARBOR SPRINGS CLEAR     51  42  69 CALM      29.92F
HOUGHTON LAKE  CLEAR     47  45  93 CALM      29.97S
MANISTEE       CLEAR     48  37  66 CALM      29.94S
OSCODA         CLEAR     50  41  71 SW3       29.95S
PELLSTON       CLEAR     43  38  82 CALM      29.91F
ROGERS CITY    CLEAR     51  41  67 CALM      29.94S
TRAVERSE CITY  CLEAR     58  39  49 S3        29.92S
$$
MIZ007>008-015-240800-
EASTERN UPPER MICHIGAN

CITY           SKY/WX    TMP DP  RH WIND       PRES   REMARKS
KINROSS          N/A     48  39  71 SE5       29.91S
MACKINAC ISLAN CLEAR     52  42  67 S8        29.91S
NEWBERRY       CLEAR     55  37  50 SW8       29.89F
S. S. MARIE    CLEAR     53  40  61 E5        29.90F
MUNISING         N/A     57  42  57 S5        29.86F
$$
MIZ004>006-011>014-085-240800-
CENTRAL UPPER MICHIGAN

CITY           SKY/WX    TMP DP  RH WIND       PRES   REMARKS
MANISTIQUE     CLEAR     53  42  66 S8        29.89S
ESCANABA       CLOUDY    63  41  45 SW9G16    29.86S
MENOMINEE      PTCLDY    63  43  48 SW8       29.87F
SAWYER-GWINN   CLOUDY    59  44  58 S5        29.86F
$$
MIZ001>003-009>011-084-240800-
WESTERN UPPER MICHIGAN

CITY           SKY/WX    TMP DP  RH WIND       PRES   REMARKS
IRON MOUNTAIN  CLOUDY    61  47  59 SE3       29.85S
HOUGHTON       CLOUDY    62  58  86 CALM      29.81S
COPPER HARBOR    N/A     63  57  81 SW6       29.80F
IRONWOOD       CLOUDY    61  59  94 CALM      29.81F
$$

ABBREVIATIONS USED IN REMARKS
   TC - TEMPERATURE IN CELSIUS
  WCI - WIND CHILL INDEX
   HX - HEAT INDEX
  VSB - VISIBILITY




USA.gov is the U.S. government's official web portal to all federal, state and local government web resources and services.